COSMOS 565

Satellite information

Favourite Embed

Satellite Type and Status

PAYLOADIN ORBIT

Key statistics

Satellite COSMOS 565 at a glance.

Uptime

19182

Days in orbit

Revolutions

≈ 12.5

Per day

Orbit

LEO

Low Earth Orbit

Inclination

74.0

Latest

Satellite identification and parameters

Extended collection of information and parameters for COSMOS 565.

Object identification

Identified? True

Debris? False

Object name: COSMOS 565

International designator: 1973-037B

Object number (NORAD): 6676

Object ID (CCSDS): 6676

Country: COMMONWEALTH OF INDEPENDENT STATES (CIS)

Current information (Y/N): Y

RCS size: MEDIUM

Orbital parameters

Period: 115.295 minutes

Inclination: 74.0187 deg

SMA: 7846.954 km

Apoapsis: 1489.519 km

Periapsis: 1448.119 km

RAAN: 252.2312 deg

Eccentricy: 0.0026379

Argument of periapsis: 211.1731 deg

Mean anomaly: 322.469 deg

Mean motion: 12.48967397 rev/day

Mean motion (dot): -0.00000016 rev/day2

B* drag term: 0.00000038027 1/REarth

Two-line elements (TLE)

Creation date: Dec. 14, 2025, 3:07 a.m.

Reference frame: TEME

Reference center: EARTH

Epoch: Dec. 13, 2025, 11:54 a.m. UTC

TLE line 0: 0 COSMOS 565

TLE line 1: 1 06676U 73037B 25347.49600407 -.00000016 00000-0 38027-6 0 9990

TLE line 2: 2 06676 74.0187 252.2312 0026379 211.1731 322.4690 12.48967397394327

Live tracking on map

Real-time ground track for satellite COSMOS 565.

In-orbit conjunctions

There are no conjunctions computed for COSMOS 565, at the moment. Check back to stay up to date, as we update our databases every day.

Go to all conjunctions

Associated space launch

Military communications satellites

COSMOS 565 was lifted into orbit during the mission ‘Kosmos-3M | Strela-1M 41-48’, on board a Kosmos-3M space rocket.

The launch took place on June 8, 1973, 3:50 p.m. from 132/1 (132L).

For more information about the launch, click the button.

Launch to space Kosmos-3M | Strela-1M 41-48
Kosmos-3M | Strela-1M 41-48

Agency: N/A

Status: Launch Successful

Launch date: June 8, 1973, 3:50 p.m. UTC

Rocket: Kosmos-3M

Launch pad: 132/1 (132L)

Location: Plesetsk Cosmodrome, Russian Federation

...

Latest news about this satellite

There are no fresh news available about this satellite. Check back as we update our databases every day.


Newsletter sign-up

Weekly statistics, charts and insights to help you stay on top of the space industry.